Regional Weather Roundup
Issued by NWS

Home | Current Version | Previous Version | Graphics & Text | Print | Product List | Glossary On
Versions: 1 2 3 4 5 6 7 8 9 10 11 12 13 14 15 16 17 18 19 20 21 22 23 24 25 26 27 28 29 30 31 32 33 34 35 36 37 38 39 40 41 42 43 44 45 46 47 48 49 50
215
ASUS45 KTFX 040510
RWRMT
MONTANA REGIONAL WEATHER ROUNDUP
NATIONAL WEATHER SERVICE GREAT FALLS MT
1000 PM MST SAT DEC 03 2016

NOTE: "FAIR" INDICATES FEW OR NO CLOUDS BELOW 12000 FEET WITH NO
SIGNIFICANT WEATHER AND/OR OBSTRUCTIONS TO VISIBILITY.

MTZ001>007-043-040600-
WEST OF THE DIVIDE

CITY           SKY/WX    TMP DP  RH WIND       PRES   REMARKS
KALISPELL      CLOUDY    35  27  72 S6        29.96F WCI  30
MISSOULA       CLOUDY    33  30  88 SE6       30.05S WCI  28
BUTTE          CLOUDY    29  14  53 W13G18    29.98F WCI  19
MULLAN PASS    FLURRIES  24  22  91 VRB7      29.93F WCI  16
ANACONDA         N/A     30  16  55 S13G20    29.99S WCI  20
DEER LODGE       N/A     27  21  80 CALM      30.00F
EUREKA           N/A     37  27  65 SE10      29.94S WCI  30
HAMILTON         N/A     37  21  52 S10       30.04F WCI  30
LIBBY            N/A     36  28  75 CALM      29.96F
PLAINS           N/A     37  27  68 CALM      30.02
RONAN            N/A     35  30  82 CALM      30.05S
$$

MTZ008-052>055-040600-
SOUTHWEST MONTANA

CITY           SKY/WX    TMP DP  RH WIND       PRES   REMARKS
BOZEMAN        CLOUDY    35  16  45 SW15      30.00S WCI  25
DILLON         CLOUDY    26  15  63 SW13      30.04R WCI  15
W YELLOWSTONE  CLOUDY    19  18  93 SW16      30.08S WCI   5
ENNIS          CLOUDY    27  16  63 S14G22    30.08S WCI  15
$$

MTZ009-010-012-014-046-048-049-054-040600-
EAST SLOPES AND CENTRAL MONTANA

CITY           SKY/WX    TMP DP  RH WIND       PRES   REMARKS
CUT BANK       CLOUDY    31  20  63 W18       29.82F WCI  19
GREAT FALLS    CLOUDY    32  22  66 SW12      29.89S WCI  23
MALMSTROM AFB  CLOUDY    33  23  65 SW18G24   29.89F WCI  22
HELENA         CLOUDY    35  21  56 NE6       29.97F WCI  30
AUGUSTA        MOCLDY    31  19  61 W14       29.88F WCI  20
BOWMANS CRNR   MOCLDY    29  20  69 SW10      29.89F WCI  19
CHOTEAU          N/A     36  18  48 W28G39    29.86F WCI  23
CONRAD           N/A     35  22  59 SW17      29.86F WCI  25
FAIRFIELD      MOCLDY    33  17  52 SW17      29.87F WCI  22
POWER          MOCLDY    30  18  60 SW13      29.86F WCI  20
RAYNESFORD     MOCLDY    35  19  52 SW22G30   29.88F WCI  23
ULM            MOCLDY    35  21  57 W13G23    29.90F WCI  26
$$

MTZ011-013-016-021-045-047-050-051-040600-
NORTH CENTRAL MONTANA

CITY           SKY/WX    TMP DP  RH WIND       PRES   REMARKS
HAVRE          CLEAR     30  20  66 SW12      29.86F WCI  20
LEWISTOWN      CLOUDY    31  18  58 W14       29.89S WCI  21
N BAR RANCH      N/A     32  16  51 W9G18     29.90S WCI  24
CHINOOK          N/A     28  21  74 CALM      29.86S
DENTON         MOCLDY    33  20  58 W15G31    29.85F WCI  23
GEYSER         MOCLDY    32  19  57 W15G21    29.87S WCI  22
GRASS RANGE    MOCLDY    31  19  62 W15       29.86S WCI  20
JUDITH GAP     MOCLDY    30  14  52 N3        29.89S
ROY            MOCLDY    32  19  59 MISG      29.86F
STANFORD       MOCLDY    33  17  50 W23G33    29.88R WCI  21
WINIFRED       MOCLDY    32  20  62 MISG      29.87F
$$

MTZ017>020-022>027-061-062-040600-
NORTHEAST MONTANA

CITY           SKY/WX    TMP DP  RH WIND       PRES   REMARKS
GLASGOW        CLEAR     28  24  85 W12       29.82S WCI  18
JORDAN           N/A     23  18  81 W6        29.85R WCI  16
SIDNEY         CLOUDY    35  29  78 W13       29.80R WCI  26
WOLF POINT     CLEAR     31  27  85 W12       29.82R WCI  22
PLENTYWOOD       N/A     30  28  93 W14       29.75R WCI  20
POPLAR           N/A     30  27  86 W12       29.81S WCI  21
SCOBEY           N/A     33  26  76 W12       29.76  WCI  24
$$

MTZ028>42-056>058-040600-
SOUTHCENTRAL AND SOUTHEAST MONTANA

CITY           SKY/WX    TMP DP  RH WIND       PRES   REMARKS
BAKER          PTCLDY    28  20  71 W10       29.85R WCI  19
BILLINGS       MOCLDY    33  23  66 W15       29.93S WCI  23
LIVINGSTON     PTCLDY    34  14  43 SW29G41   29.95F WCI  20
MILES CITY     CLOUDY    32  20  61 W12       29.88R WCI  23
BIG TIMBER     CLOUDY    34  16  47 VRB3      29.98R
EKALAKA          N/A     32  22  67 SW12      29.84  WCI  23
FORSYTH          N/A     37  19  48 W9        29.90R WCI  31
HARLOWTON      MOCLDY    30  17  57 W15       29.91F WCI  19
LAUREL           N/A     27  11  51 W2        29.92F
ROUNDUP          N/A     31  13  47 SW8       29.83S WCI  24
$$

REGIONAL REPORTS...DAKOTAS

CITY           SKY/WX    TMP DP  RH WIND       PRES   REMARKS
WILLISTON      CLOUDY    34  30  85 W9        29.75S WCI  27
MINOT          FLURRIES  32  30  92 SW7       29.71S WCI  26
DICKINSON      CLEAR     28  25  88 W16       29.75S WCI  16
BEACH            N/A     28  25  86 W15       29.84R WCI  17
CROSBY         FLURRIES  27  27 100 NW9       29.75R WCI  17
TIOGA          MOCLDY    28  28 100 W12       29.73R WCI  18
WATFORD CITY   CLOUDY    32  32 100 W15       29.76R WCI  22
BISMARCK       CLOUDY    26  25  96 CALM      29.79F
GRAND FORKS    CLOUDY    33  30  88 S17       29.90F WCI  22
FARGO          CLOUDY    35  31  85 SE18      29.92F WCI  24
BUFFALO SD       N/A     29  25  85 W10       29.78R WCI  20
RAPID CITY     PTCLDY    30  22  72 W6        29.91S WCI  24
$$

REGIONAL REPORTS...WYOMING/IDAHO/WASHINGTON

CITY           SKY/WX    TMP DP  RH WIND       PRES   REMARKS
GILLETTE       CLOUDY    33  18  53 W9        29.93R WCI  25
SHERIDAN       MOCLDY    34  16  47 W8        29.94S WCI  27
BUFFALO WY     PTCLDY    32  10  40 W7        29.93R WCI  26
CODY           CLOUDY    32  13  45 W12G24    29.98S WCI  23
YELLOWSTONE LA   N/A     17  16  95 W8G18     30.05R WCI   7
IDAHO FALLS    CLOUDY    30  25  81 SW13      30.16F WCI  20
SALMON         CLOUDY    28  19  69 NW9       30.09R WCI  20
BOISE          CLOUDY    36  29  75 E5        30.20F
SPOKANE        CLOUDY    37  32  82 S12       30.02F WCI  29
$$

REGIONAL REPORTS...ALBERTA

CITY           SKY/WX    TMP DP  RH WIND       PRES   REMARKS
EDMONTON       CLEAR     27  16  63 SW8       29.67F WCI  18
CALGARY        MOCLDY    32  14  47 SW7       29.70F WCI  26
LETHBRIDGE     MOCLDY    36  18  48 W21G28    29.77F WCI  24
MEDICINE HAT   PTCLDY    25  19  80 S6        29.77F WCI  18
WATERTON GATE    N/A     32  19  59 SW9         N/A  WCI  24
CARDSTON         N/A     30  16  55 SW9         N/A  WCI  22
MILK RIVER       N/A     34  21  60 W20G25      N/A  WCI  22
ONEFOUR          N/A     28  18  64 NW10        N/A  WCI  19
$$

REGIONAL REPORTS...SASKATCHEWAN

CITY           SKY/WX    TMP DP  RH WIND       PRES   REMARKS
SWIFT CURRENT  CLEAR     23  21  93 W13       29.74R WCI  11
REGINA         FLURRIES  23  23 100 NW14      29.73S WCI  11
SASKATOON      CLOUDY    25  23  93 W6        29.74S WCI  18
CYPRESS HILLS    N/A     27  18  69 W9          N/A  WCI  17
VAL MARIE        N/A     25  21  86 W12         N/A  WCI  14
ROCKGLEN         N/A     30  30 100 NW14G21     N/A  WCI  20
ASSINIBOIA       N/A     27  18  69 W8          N/A  WCI  18
$$




USA.gov is the U.S. government's official web portal to all federal, state and local government web resources and services.